Regional Weather Roundup
Issued by NWS Albany, NY

Home | Current Version | Previous Version | Text Only | Print | Product List | Glossary On
Versions: 1 2 3 4 5 6 7 8 9 10 11 12 13 14 15 16 17 18 19 20 21 22 23 24 25 26 27 28 29 30 31 32
000
ASUS41 KALY 211010
RWRALY

NEW YORK STATE HOURLY WEATHER ROUNDUP
NATIONAL WEATHER SERVICE ALBANY NY
600 AM EDT TUE OCT 21 2014

NOTE: "FAIR" INDICATES FEW OR NO CLOUDS BELOW 12,000 FEET WITH NO
SIGNIFICANT WEATHER AND/OR NO OBSTRUCTIONS TO VISIBILITY.

NYZ032-033-038>043-046>054-057>066-NYZ062>081-211100-
EAST


CITY           SKY/WX    TMP DP  RH WIND       PRES   REMARKS
ALBANY         LGT RAIN  49  45  86 CALM      29.90S
GLENS FALLS    CLOUDY    45  42  89 CALM      29.91F
POUGHKEEPSIE   LGT RAIN  49  45  86 CALM      29.91S
NEWBURGH       LGT RAIN  48  46  93 CALM      29.91F
MONTGOMERY     CLOUDY    46  44  93 CALM      29.90S
WHITE PLAINS   MOCLDY    49  45  86 CALM      29.89F
ISLIP          CLOUDY    51  47  86 CALM      29.89S
NEW YORK CITY  CLOUDY    57  46  66 S3        29.90S
CENTRAL PARK   CLOUDY    56  45  66 CALM      29.92S
$$

NYZ005>009-017-018-044>046-055-056-211100-
CENTRAL


CITY           SKY/WX    TMP DP  RH WIND       PRES   REMARKS
FULTON         LGT RAIN  47  44  90 VRB5      29.82S
SYRACUSE       DRIZZLE   49  46  91 SE8       29.83S
ROME           CLOUDY    47  43  86 SE7       29.87S
ELMIRA         CLOUDY    46  46 100 CALM      29.81F
BINGHAMTON     CLOUDY    47  42  83 SE6       29.83S
MONTICELLO     CLOUDY    45  43  93 E5        29.89S
$$

NYZ026>034-041>043-211100-
NORTH


CITY           SKY/WX    TMP DP  RH WIND       PRES   REMARKS
WATERTOWN      CLOUDY    51  42  71 SE3       29.83S
FORT DRUM      NOT AVBL
MASSENA        LGT RAIN  44  42  93 E13       29.91S
SARANAC LAKE   LGT RAIN  40  39  97 NE6       29.87S
PLATTSBURGH    CLOUDY    43  42  97 CALM      29.93S
$$

NYZ001>004-010>016-019>021-211100-
WEST


CITY           SKY/WX    TMP DP  RH WIND       PRES   REMARKS
NIAGARA FALLS  CLOUDY    50  48  93 W6        29.78R FOG
BUFFALO        CLOUDY    50  48  93 W3        29.78S FOG
DUNKIRK        CLOUDY    52  49  89 W8        29.80R
JAMESTOWN      CLOUDY    48  45  87 W5        29.81R
WELLSVILLE     LGT RAIN  47  44  90 SW6       29.80S
ROCHESTER      LGT RAIN  50  48  93 S3        29.79R
PENN YAN       LGT RAIN  48  46  93 S7        29.81S
$$

             KEY
       WCI = WIND CHILL INDEX
       VSB = VISIBILITY
       HX  = HEAT INDEX
$$



USA.gov is the U.S. government's official web portal to all federal, state and local government web resources and services.